Tracking 35237 objects as of 5-Sep-2026
HD Live streaming from Space Station
objects crossing your sky now

STARLINK-5790

Track STARLINK-5790 now!
10-day predictions
STARLINK-5790 is classified as:


NORAD ID: 56036
Int'l Code: 2023-042BC
Launch date: March 24, 2022
Source: United States (US)
Launch site: AIR FORCE EASTERN TEST RANGE (AFETR)
Your satellite tracking list
Your tracking list is empty




NASA's NSSDC Master Catalog

Two Line Element Set (TLE):
1 56036U 23042BC  26247.32305767  .00000023  00000-0  10371-4 0  9996
2 56036  43.0015 116.5048 0001147 256.4666 103.6058 15.27576562190355
Source of the keplerian elements: AFSPC